SB KEPS @ AMSAT $ORB11265.O Orbital Elements 11265.OSCAR
HR AMSAT ORBITAL ELEMENTS FOR OSCAR SATELLITES FROM WA5QGD FORT WORTH,TX September 22, 2011 Send Subscribe/unsubscribe to KEPS at http://www.amsat.org/mailman/listinfo/keps BID: ORB11265.O TO ALL RADIO AMATEURS BT
Satellite: AO-07 Catalog number: 07530 Epoch time: 11265.59920252 Element set: 186 Inclination: 101.3971 deg RA of node: 268.3077 deg Eccentricity: 0.0012098 Arg of perigee: 087.6901 deg Mean anomaly: 272.5549 deg Mean motion: 12.53584049 rev/day Decay rate: -2.7e-07 rev/day^2 Epoch rev: 68639 Checksum: 320
Satellite: FO-29 Catalog number: 24278 Epoch time: 11264.78382260 Element set: 669 Inclination: 098.5631 deg RA of node: 035.9550 deg Eccentricity: 0.0350968 Arg of perigee: 007.0752 deg Mean anomaly: 353.5162 deg Mean motion: 13.52964907 rev/day Decay rate: -3.5e-07 rev/day^2 Epoch rev: 74552 Checksum: 330
Satellite: SO-33 Catalog number: 25509 Epoch time: 11265.44849248 Element set: 59 Inclination: 031.4334 deg RA of node: 054.1828 deg Eccentricity: 0.0353278 Arg of perigee: 012.1572 deg Mean anomaly: 348.7335 deg Mean motion: 14.28447688 rev/day Decay rate: 1.86e-06 rev/day^2 Epoch rev: 67419 Checksum: 328
Satellite: RS-22 Catalog number: 27939 Epoch time: 11265.64282711 Element set: 652 Inclination: 097.8340 deg RA of node: 114.9305 deg Eccentricity: 0.0014352 Arg of perigee: 040.2626 deg Mean anomaly: 319.9621 deg Mean motion: 14.63650892 rev/day Decay rate: 4.71e-06 rev/day^2 Epoch rev: 42659 Checksum: 305
Satellite: VO-52 Catalog number: 28650 Epoch time: 11265.78459716 Element set: 905 Inclination: 097.6327 deg RA of node: 304.5057 deg Eccentricity: 0.0026355 Arg of perigee: 199.5998 deg Mean anomaly: 160.4183 deg Mean motion: 14.82192102 rev/day Decay rate: 7.39e-06 rev/day^2 Epoch rev: 34520 Checksum: 329
Satellite: SO-67 Catalog number: 35870 Epoch time: 11265.79293355 Element set: 244 Inclination: 097.2716 deg RA of node: 305.8667 deg Eccentricity: 0.0003630 Arg of perigee: 061.1191 deg Mean anomaly: 070.2364 deg Mean motion: 15.21163977 rev/day Decay rate: 4.425e-05 rev/day^2 Epoch rev: 11177 Checksum: 307
Satellite: HO-68 Catalog number: 36122 Epoch time: 11265.68071932 Element set: 764 Inclination: 100.4053 deg RA of node: 324.9716 deg Eccentricity: 0.0007563 Arg of perigee: 005.3963 deg Mean anomaly: 354.7229 deg Mean motion: 13.16288198 rev/day Decay rate: -4.4e-07 rev/day^2 Epoch rev: 8506 Checksum: 306
/EX SB KEPS @ AMSAT $ORB11265.D Orbital Elements 11265.MICROS
HR AMSAT ORBITAL ELEMENTS FOR THE MICROSATS FROM WA5QGD FORT WORTH,TX September 22, 2011 Send Subscribe/unsubscribe to KEPS at http://www.amsat.org/mailman/listinfo/keps BID: ORB11265.D TO ALL RADIO AMATEURS BT
Satellite: UO-11 Catalog number: 14781 Epoch time: 11265.22435624 Element set: 659 Inclination: 097.9952 deg RA of node: 321.5760 deg Eccentricity: 0.0008747 Arg of perigee: 178.0235 deg Mean anomaly: 182.1010 deg Mean motion: 14.80043325 rev/day Decay rate: 6.86e-06 rev/day^2 Epoch rev: 48014 Checksum: 293
Satellite: AO-16 Catalog number: 20439 Epoch time: 11265.77838699 Element set: 286 Inclination: 098.3935 deg RA of node: 212.1772 deg Eccentricity: 0.0010009 Arg of perigee: 232.9485 deg Mean anomaly: 127.0788 deg Mean motion: 14.31942073 rev/day Decay rate: 1.68e-06 rev/day^2 Epoch rev: 13158 Checksum: 325
Satellite: LO-19 Catalog number: 20442 Epoch time: 11265.63302803 Element set: 204 Inclination: 098.3566 deg RA of node: 216.0192 deg Eccentricity: 0.0011227 Arg of perigee: 224.2678 deg Mean anomaly: 135.7612 deg Mean motion: 14.32165999 rev/day Decay rate: 1.05e-06 rev/day^2 Epoch rev: 13174 Checksum: 276
Satellite: AO-27 Catalog number: 22825 Epoch time: 11264.89243158 Element set: 918 Inclination: 098.5426 deg RA of node: 207.3884 deg Eccentricity: 0.0010152 Arg of perigee: 353.8578 deg Mean anomaly: 006.2452 deg Mean motion: 14.29367133 rev/day Decay rate: 1.88e-06 rev/day^2 Epoch rev: 93800 Checksum: 319
Satellite: IO-26 Catalog number: 22826 Epoch time: 11264.87410146 Element set: 664 Inclination: 098.5336 deg RA of node: 207.8131 deg Eccentricity: 0.0009110 Arg of perigee: 351.9291 deg Mean anomaly: 008.1742 deg Mean motion: 14.29629539 rev/day Decay rate: 1.57e-06 rev/day^2 Epoch rev: 93812 Checksum: 304
Satellite: GO-32 Catalog number: 25397 Epoch time: 11265.70446583 Element set: 585 Inclination: 098.3363 deg RA of node: 253.0925 deg Eccentricity: 0.0001371 Arg of perigee: 036.0228 deg Mean anomaly: 324.1032 deg Mean motion: 14.23220222 rev/day Decay rate: 1.20e-06 rev/day^2 Epoch rev: 68583 Checksum: 270
Satellite: NO-44 Catalog number: 26931 Epoch time: 11265.00150297 Element set: 854 Inclination: 067.0498 deg RA of node: 094.0593 deg Eccentricity: 0.0005032 Arg of perigee: 260.2318 deg Mean anomaly: 099.8222 deg Mean motion: 14.29680718 rev/day Decay rate: -1.45e-06 rev/day^2 Epoch rev: 52076 Checksum: 300
Satellite: SO-50 Catalog number: 27607 Epoch time: 11265.50323327 Element set: 571 Inclination: 064.5593 deg RA of node: 031.9357 deg Eccentricity: 0.0080214 Arg of perigee: 300.9038 deg Mean anomaly: 058.4180 deg Mean motion: 14.71824252 rev/day Decay rate: 7.36e-06 rev/day^2 Epoch rev: 47041 Checksum: 282
Satellite: CO-55 Catalog number: 27844 Epoch time: 11265.56921966 Element set: 204 Inclination: 098.7078 deg RA of node: 272.8644 deg Eccentricity: 0.0008875 Arg of perigee: 280.4489 deg Mean anomaly: 079.5699 deg Mean motion: 14.20846793 rev/day Decay rate: 2.03e-06 rev/day^2 Epoch rev: 42674 Checksum: 362
Satellite: CO-57 Catalog number: 27848 Epoch time: 11263.55578259 Element set: 0151 Inclination: 098.7132 deg RA of node: 270.1043 deg Eccentricity: 0.0009235 Arg of perigee: 294.2930 deg Mean anomaly: 065.7264 deg Mean motion: 14.20621714 rev/day Decay rate: -3.0e-07 rev/day^2 Epoch rev: 42640 Checksum: 291
Satellite: AO-51 Catalog number: 28375 Epoch time: 11265.47689863 Element set: 77 Inclination: 098.1093 deg RA of node: 238.8640 deg Eccentricity: 0.0084027 Arg of perigee: 134.4365 deg Mean anomaly: 226.3755 deg Mean motion: 14.40781426 rev/day Decay rate: 8.9e-07 rev/day^2 Epoch rev: 38007 Checksum: 332
Satellite: CP3 Catalog number: 31129 Epoch time: 11264.72771562 Element set: 974 Inclination: 097.8967 deg RA of node: 283.3495 deg Eccentricity: 0.0100350 Arg of perigee: 240.4686 deg Mean anomaly: 118.6429 deg Mean motion: 14.52569956 rev/day Decay rate: 7.20e-06 rev/day^2 Epoch rev: 23485 Checksum: 332
Satellite: CO-65 Catalog number: 32785 Epoch time: 11264.69148808 Element set: 0105 Inclination: 097.8381 deg RA of node: 326.6927 deg Eccentricity: 0.0014038 Arg of perigee: 218.9613 deg Mean anomaly: 141.0574 deg Mean motion: 14.82136634 rev/day Decay rate: 1.649e-05 rev/day^2 Epoch rev: 18383 Checksum: 329
Satellite: PRISM Catalog number: 33493 Epoch time: 11265.80171220 Element set: 985 Inclination: 098.1377 deg RA of node: 035.9190 deg Eccentricity: 0.0020894 Arg of perigee: 085.9357 deg Mean anomaly: 274.4266 deg Mean motion: 14.81977695 rev/day Decay rate: 3.222e-05 rev/day^2 Epoch rev: 14397 Checksum: 331
Satellite: SOHLA-1 Catalog number: 33496 Epoch time: 11265.41129313 Element set: 523 Inclination: 098.0876 deg RA of node: 014.2981 deg Eccentricity: 0.0006668 Arg of perigee: 166.4011 deg Mean anomaly: 193.7370 deg Mean motion: 14.69665809 rev/day Decay rate: 5.60e-06 rev/day^2 Epoch rev: 14276 Checksum: 308
Satellite: TISAT-1 Catalog number: 36799 Epoch time: 11265.72086202 Element set: 257 Inclination: 098.0933 deg RA of node: 334.9024 deg Eccentricity: 0.0014422 Arg of perigee: 326.4517 deg Mean anomaly: 033.5785 deg Mean motion: 14.80742022 rev/day Decay rate: 1.832e-05 rev/day^2 Epoch rev: 6474 Checksum: 294
Satellite: STUDSAT Catalog number: 36801 Epoch time: 11264.77032399 Element set: 0248 Inclination: 098.0970 deg RA of node: 333.8780 deg Eccentricity: 0.0012987 Arg of perigee: 317.9108 deg Mean anomaly: 042.1105 deg Mean motion: 14.81077133 rev/day Decay rate: 5.149e-05 rev/day^2 Epoch rev: 06459 Checksum: 306
Satellite: OOREOS Catalog number: 37224 Epoch time: 11153.29456974 Element set: 0179 Inclination: 071.9726 deg RA of node: 071.8135 deg Eccentricity: 0.0020315 Arg of perigee: 307.7637 deg Mean anomaly: 052.1684 deg Mean motion: 14.77036357 rev/day Decay rate: 4.92e-06 rev/day^2 Epoch rev: 02867 Checksum: 309
Satellite: FO-69 Catalog number: 37227 Epoch time: 11264.39249380 Element set: 0136 Inclination: 071.9874 deg RA of node: 187.1327 deg Eccentricity: 0.0022735 Arg of perigee: 136.5388 deg Mean anomaly: 223.7571 deg Mean motion: 14.76684509 rev/day Decay rate: 5.111e-05 rev/day^2 Epoch rev: 02352 Checksum: 322
Satellite: NANOSALD Catalog number: 37361 Epoch time: 11242.25215765 Element set: 0351 Inclination: 071.9735 deg RA of node: 221.4469 deg Eccentricity: 0.0025730 Arg of perigee: 245.3422 deg Mean anomaly: 114.7284 deg Mean motion: 15.22200108 rev/day Decay rate: 1.80112e-03 rev/day^2 Epoch rev: 03331 Checksum: 248
Satellite: FO-70 Catalog number: 37380 Epoch time: 11264.35373356 Element set: 0276 Inclination: 071.9727 deg RA of node: 187.4375 deg Eccentricity: 0.0016009 Arg of perigee: 101.8133 deg Mean anomaly: 258.4820 deg Mean motion: 14.76418086 rev/day Decay rate: 7.71e-06 rev/day^2 Epoch rev: 04505 Checksum: 306
/EX SB KEPS @ AMSAT $ORB11265.W Orbital Elements 11265.WEATHER
HR AMSAT ORBITAL ELEMENTS FOR WEATHER SATELLITES FROM WA5QGD FORT WORTH,TX September 22, 2011 Send Subscribe/unsubscribe to KEPS at http://www.amsat.org/mailman/listinfo/keps BID: ORB11265.W TO ALL RADIO AMATEURS BT
Satellite: NOAA-10 Catalog number: 16969 Epoch time: 11265.14959244 Element set: 644 Inclination: 098.6125 deg RA of node: 293.5888 deg Eccentricity: 0.0011645 Arg of perigee: 304.7598 deg Mean anomaly: 055.2482 deg Mean motion: 14.27477965 rev/day Decay rate: -3.6e-07 rev/day^2 Epoch rev: 30148 Checksum: 341
